Prescott, AZ

10:31 AM MST on November 22, 2019 (GMT -0700)
Love

Weather History for KPRC - May, 2019

Change the Weather History Date:

Tuesday, May 14, 2019

  Actual Average Record
Temperature  
Mean Temperature 65 °F 61 °F  
Max Temperature 80 °F 76 °F 90 °F (1997)
Min Temperature 50 °F 46 °F 29 °F (1967)
Degree Days  
Heating Degree Days 0    
Month to date heating degree days 100  
Since 1 July heating degree days 4149  
Cooling Degree Days 0    
Month to date cooling degree days 0  
Year to date cooling degree days 1  
Growing Degree Days 15 (Base 50)    
Moisture  
Dew Point 38 °F    
Average Humidity 39    
Maximum Humidity 68    
Minimum Humidity 20    
Precipitation  
Precipitation 0.01 in 0.02 in 0.32 in (1951)
Month to date precipitation 0.81 0.21  
Year to date precipitation 6.33 4.29  
Sea Level Pressure  
Sea Level Pressure 29.91 in    
Wind  
Wind Speed 6 mph (SSW)    
Max Wind Speed 22 mph    
Max Gust Speed 35 mph    
Visibility 10 miles    
Events Rain    
T = Trace of Precipitation, MM = Missing Value Source: NWS Daily Summary

Daily Weather History Graph

Daily Weather History Graph

Search for Another Location

Airport or City:

Astronomy

May. 14, 2019 Rise Set
Actual Time 5:27 AM MST 7:24 PM MST
Civil Twilight 4:59 AM MST 7:52 PM MST
Nautical Twilight 4:26 AM MST 8:26 PM MST
Astronomical Twilight 3:50 AM MST 9:02 PM MST
Moon 3:05 PM MST (5/14) 3:06 AM MST (5/14)
Length of Visible Light 14h 52m
Length of Day
13h 57m
Waxing Gibbous, 80% of the Moon is Illuminated
May 14
Waxing Gibbous
May 18
Full
May 26
Last Quarter
Jun 3
New
Jun 9
First Quarter

Hourly Weather History & Observations

Time (MST) Temp. Dew Point Humidity Pressure Visibility Wind Dir Wind Speed Gust Speed Precip Events Conditions
12:53 AM 57.9 °F 39.0 °F 49% 29.90 in 10.0 mi SSE 3.5 mph - N/A   Clear
1:53 AM 54.0 °F 39.9 °F 59% 29.90 in 10.0 mi South 6.9 mph - N/A   Clear
2:53 AM 51.1 °F 41.0 °F 68% 29.91 in 10.0 mi SSW 4.6 mph - N/A   Clear
3:53 AM 53.1 °F 41.0 °F 64% 29.91 in 10.0 mi SSW 9.2 mph - N/A   Clear
4:53 AM 51.1 °F 39.9 °F 66% 29.92 in 10.0 mi SSW 3.5 mph - N/A   Clear
5:53 AM 52.0 °F 41.0 °F 66% 29.94 in 10.0 mi SSW 6.9 mph - N/A   Clear
6:53 AM 59.0 °F 42.1 °F 53% 29.94 in 10.0 mi Calm Calm - N/A   Clear
7:53 AM 64.0 °F 43.0 °F 46% 29.95 in 10.0 mi Calm Calm - N/A   Clear
8:53 AM 69.1 °F 42.1 °F 38% 29.96 in 10.0 mi Calm Calm - N/A   Clear
9:53 AM 73.0 °F 37.9 °F 28% 29.95 in 10.0 mi East 4.6 mph - N/A   Partly Cloudy
10:53 AM 73.9 °F 34.0 °F 23% 29.95 in 10.0 mi Calm Calm - N/A   Scattered Clouds
11:53 AM 70.0 °F 37.9 °F 31% 29.97 in 10.0 mi WSW 13.8 mph 27.6 mph 0.01 in Rain Light Rain
12:53 PM 73.0 °F 39.0 °F 29% 29.93 in 10.0 mi SSE 3.5 mph - 0.00 in Rain Light Rain
1:53 PM 75.9 °F 37.9 °F 25% 29.91 in 10.0 mi Calm Calm - 0.00 in   Scattered Clouds
2:53 PM 77.0 °F 37.0 °F 24% 29.89 in 10.0 mi SW 8.1 mph - N/A   Mostly Cloudy
3:27 PM 78.1 °F 37.0 °F 23% 30.07 in 10.0 mi SSW 5.8 mph - N/A   Mostly Cloudy
3:53 PM 79.0 °F 36.0 °F 21% 29.86 in 10.0 mi Variable 6.9 mph - N/A   Mostly Cloudy
4:53 PM 77.0 °F 35.1 °F 22% 29.87 in 10.0 mi SSW 5.8 mph - N/A   Mostly Cloudy
5:53 PM 77.0 °F 34.0 °F 21% 29.86 in 10.0 mi SSW 9.2 mph - N/A   Scattered Clouds
6:53 PM 73.9 °F 34.0 °F 23% 29.85 in 10.0 mi SW 9.2 mph - N/A   Scattered Clouds
7:53 PM 68.0 °F 36.0 °F 31% 29.87 in 10.0 mi SSW 5.8 mph - N/A   Clear
8:53 PM 64.9 °F 36.0 °F 34% 29.87 in 10.0 mi SSW 8.1 mph - N/A   Clear
9:53 PM 61.0 °F 37.9 °F 42% 29.88 in 10.0 mi SSW 8.1 mph - N/A   Clear
10:53 PM 60.1 °F 37.0 °F 42% 29.88 in 10.0 mi South 6.9 mph - N/A   Clear
11:53 PM 57.0 °F 39.0 °F 51% 29.90 in 10.0 mi South 8.1 mph - N/A   Clear